[Iaude] MPEC U133: 2023 TT36 [a=1.65,e=0.38,i=9.4,H=26.3]
    mpec at marsden.cfa.harvard.edu 
    mpec at marsden.cfa.harvard.edu
       
    Fri Oct 20 10:00:51 EDT 2023
    
    
  
M.P.E.C. 2023-U133                             Issued 2023 October 20, 13:59 UT
     The Minor Planet Electronic Circulars contain information on unusual
         minor planets, routine data on comets and natural satellites,
         and occasional editorial announcements.  They are published
    on behalf of Division F of the International Astronomical Union by the
          Minor Planet Center, Smithsonian Astrophysical Observatory,
                          Cambridge, MA 02138, U.S.A.
			  
             Prepared using the Tamkin Foundation Computer Network
                              MPC at CFA.HARVARD.EDU
            URL https://www.minorplanetcenter.net/    ISSN 1523-6714
                                   2023 TT36                                    
Observations:
     K23T36T* C2023 10 15.33342000 30 53.599+03 47 38.74         19.9 GVEU133U68
     K23T36T  C2023 10 15.33676200 30 54.172+03 49 01.12         19.9 GVEU133U68
     K23T36T  C2023 10 15.35467700 30 57.401+03 56 21.31         19.6 GVEU133U68
     K23T36T  C2023 10 15.35801900 30 58.182+03 57 43.96         19.6 GVEU133U68
     K23T36T  C2023 10 19.27634000 53 47.676+33 25 59.47         19.7 GVEU133U68
     K23T36T  C2023 10 19.27968200 53 48.765+33 27 29.83         19.7 GVEU133U68
     K23T36T  C2023 10 19.29754600 53 54.542+33 35 30.69         19.9 GVEU133U68
     K23T36T  C2023 10 19.30088800 53 55.658+33 37 00.55         19.9 GVEU133U68
     K23T36T KC2023 10 19.91123 00 58 32.82 +38 04 45.4          19.7 GXEU133L51
     K23T36T KC2023 10 19.91228 00 58 33.21 +38 05 12.1          19.4 GXEU133L51
     K23T36T KC2023 10 19.91333 00 58 33.62 +38 05 39.1          19.3 GXEU133L51
     K23T36T KC2023 10 20.21291 01 01 06.93 +40 13 38.5          19.7 VqEU133734
     K23T36T KC2023 10 20.21855 01 01 09.09 +40 16 00.9          20.1 VqEU133734
     K23T36T KC2023 10 20.22409 01 01 11.14 +40 18 20.6          20.2 VqEU133734
Observer details:
734 Farpoint Observatory, Eskridge.  Observers D. Cromer, G. Hug, D. Goodin,
    R. Valentine.  Measurer D. Cromer.  0.69-m f/3.54 reflector + CCD.
L51 MARGO, Nauchnyi.  Observer G. Borisov.  0.50-m f/1.9 reflector + CCD.
U68 JPL SynTrack Robotic Telescope, Auberry.  Observers N. Saini, C. Zhai, R.
    Trahan, M. Zhan, M. Shao.  0.28-m Reflector + CCD.
Orbital elements:
2023 TT36                                                Earth MOID = 0.0296 AU
Epoch 2023 Sept. 13.0 TT = JDT 2460200.5                Veres                   
M 338.89562              (2000.0)            P               Q                  
n   0.46455434     Peri.   14.72721     +0.81379680     -0.57823369             
a   1.6511190      Node    20.92347     +0.51537670     +0.67183963             
e   0.3827059      Incl.    9.37002     +0.26855469     +0.46290098             
P   2.12           H   26.38          G   0.15           U   9                  
Residuals in seconds of arc
231015 U68  0.3+  0.1+    231019 U68  0.1+  0.2+    231019 L51  0.2+  0.3+
231015 U68  0.2-  0.3+    231019 U68  0.3-  0.1-    231020 734  0.0   0.2+
231015 U68  1.2-  0.4-    231019 U68  0.0   0.1-    231020 734  0.3+  0.1-
231015 U68  1.2+  0.0     231019 L51  0.1+  0.4+    231020 734  0.3-  0.2-
231019 U68  0.0   0.1+    231019 L51  0.0   0.2+
Ephemeris:
2023 TT36                a,e,i = 1.65, 0.38, 9                   q = 1.0192
Date    TT    R. A. (2000) Decl.     Delta      r    Elong.  Phase     V
2023 09 20    23 50 00.0 -46 19 35   0.1220  1.0943   135.1    40.4    23.6
...
2023 10 05    00 02 53.6 -35 03 04   0.06219 1.0483   139.5    38.3    22.0
...
2023 10 13    00 21 43.7 -10 14 27   0.03646 1.0320   158.5    20.7    20.3
...
2023 10 19    00 51 45.8 +31 21 12   0.03016 1.0240   156.3    23.0    19.9
2023 10 20    00 59 19.7 +38 43 03   0.03101 1.0230   150.1    29.0    20.2
2023 10 21    01 07 58.4 +45 31 30   0.03236 1.0221   144.2    34.7    20.4
...
2023 10 27    02 34 52.0 +71 35 34   0.04765 1.0192   120.7    57.0    21.9
...
2023 11 04    06 12 28.7 +79 37 03   0.07544 1.0213   110.9    65.1    23.1
...
2023 11 19    08 42 48.8 +76 04 16   0.1297  1.0436   111.8    61.6    24.2
M. P. C. Staff               (C) Copyright 2023 MPC           M.P.E.C. 2023-U133
    
    
More information about the Iaude
mailing list